Portada
METAR-TAF:

METAR-TAF

Aeroports :

Skyhaven Airport

Rochester, Nova Hampshire, Estats Units d'Amèrica

latitud: 43-16-41N, longitud: 070-55-20W, altitud: 98 m

Observació

L'informe es va fer fa 16 minuts, a les 22:51 UTC
Vent 8 kt del Oest, variant entre Oest/Sud-Oest i Nord-Oest
Temperatura 4°C
Humitat 70%
Pressió 1000 hPa
Visibilitat: 16.1 km
Cel clar

METAR: KDAW 222251Z AUTO 28008KT 240V310 10SM CLR 04/M01 A2954 RMK AO2 SLP003 T00441006

Hora: 18:07 (23:07 UTC)


TAF: manca

Observacions i pronòstics meteorològics de més de 4000 aeroports (METAR i TAF).

Les estacions disponibles són els punts grocs i vermells al mapa.

Posi el ratolí al punt desitjat per veure el nom de l'estació.

Feu clic per veure les observacions i els pronòstics meteorològics.

Per canviar el mapa: feu clic els botons verds amb una creu de color negre per apropar; al botó verd amb un guió per allunyar la imatge; o en les fletxes verdes per a mapes adjacents.


METAR-TAF: